FFT1094 KSFO-KDEN

Flight info

Callsign FFT1094
Flight time N/A
Altitude 39000
Route TRUKN2 SYRAH Q128 JSICA LUDOH BUMMP SSKII4
Aircraft A20N/M-SDE2E3FGHIRWXY/LB1

Departure

Time 2026-05-05 00:13
Airport San Francisco International Airport (KSFO)

Arrival

Time N/A
Airport Denver International Airport (KDEN)
Time Latitude Longitude Altitude Speed Heading
2026-05-04 23:34 37.61088 -122.38503 18 ft 0 kts 297°
2026-05-04 23:52 37.61080 -122.38486 18 ft 4 kts 327°
2026-05-04 23:52 37.61057 -122.38484 19 ft 4 kts 26°
2026-05-04 23:53 37.61043 -122.38493 20 ft 1 kts 31°
2026-05-04 23:53 37.61041 -122.38495 21 ft 0 kts 31°
2026-05-05 00:04 37.61051 -122.38487 21 ft 1 kts 31°
2026-05-05 00:04 37.61069 -122.38473 19 ft 6 kts 31°
2026-05-05 00:04 37.61119 -122.38435 17 ft 11 kts 30°
2026-05-05 00:05 37.61198 -122.38383 19 ft 15 kts 31°
2026-05-05 00:05 37.61290 -122.38299 16 ft 18 kts 51°
2026-05-05 00:05 37.61366 -122.38163 14 ft 17 kts 43°
2026-05-05 00:05 37.61384 -122.38039 17 ft 16 kts 120°
2026-05-05 00:06 37.61326 -122.37899 16 ft 20 kts 117°
2026-05-05 00:06 37.61261 -122.37737 19 ft 21 kts 117°
2026-05-05 00:06 37.61226 -122.37561 18 ft 7 kts 118°
2026-05-05 00:06 37.61223 -122.37538 18 ft 3 kts 73°
2026-05-05 00:07 37.61238 -122.37515 20 ft 4 kts 41°
2026-05-05 00:07 37.61268 -122.37490 20 ft 6 kts 32°
2026-05-05 00:07 37.61309 -122.37464 23 ft 8 kts 28°
2026-05-05 00:07 37.61364 -122.37426 21 ft 11 kts 28°
2026-05-05 00:08 37.61439 -122.37374 21 ft 14 kts 27°
2026-05-05 00:08 37.61526 -122.37302 24 ft 16 kts 49°
2026-05-05 00:08 37.61558 -122.37160 22 ft 19 kts 95°
2026-05-05 00:08 37.61501 -122.36994 25 ft 22 kts 123°
2026-05-05 00:09 37.61400 -122.36829 19 ft 26 kts 129°
2026-05-05 00:09 37.61302 -122.36632 18 ft 25 kts 116°
2026-05-05 00:09 37.61229 -122.36453 15 ft 17 kts 118°
2026-05-05 00:09 37.61171 -122.36314 18 ft 19 kts 117°
2026-05-05 00:10 37.61103 -122.36156 19 ft 22 kts 119°
2026-05-05 00:10 37.61055 -122.36031 20 ft 12 kts 108°
2026-05-05 00:10 37.61077 -122.35923 18 ft 15 kts 43°
2026-05-05 00:10 37.61091 -122.35911 18 ft 0 kts 31°
2026-05-05 00:11 37.61091 -122.35910 18 ft 1 kts 31°
2026-05-05 00:11 37.61108 -122.35898 20 ft 5 kts 30°
2026-05-05 00:11 37.61146 -122.35876 19 ft 7 kts 26°
2026-05-05 00:11 37.61191 -122.35889 20 ft 8 kts 310°
2026-05-05 00:12 37.61236 -122.35997 17 ft 34 kts 297°
2026-05-05 00:12 37.61456 -122.36527 17 ft 99 kts 299°
2026-05-05 00:12 37.61867 -122.37500 37 ft 144 kts 297°
2026-05-05 00:12 37.62381 -122.38541 576 ft 144 kts 312°
2026-05-05 00:13 37.63305 -122.39087 1024 ft 159 kts 356°
2026-05-05 00:13 37.64430 -122.38620 1304 ft 188 kts 36°
2026-05-05 00:13 37.65289 -122.37246 1605 ft 215 kts 58°
2026-05-05 00:13 37.66030 -122.35449 1957 ft 244 kts 63°
2026-05-05 00:14 37.66748 -122.33471 2551 ft 265 kts 66°
2026-05-05 00:14 37.67520 -122.31318 3467 ft 275 kts 65°
2026-05-05 00:14 37.68045 -122.29914 4084 ft 276 kts 65°
2026-05-05 00:14 37.68892 -122.27796 5462 ft 266 kts 65°
2026-05-05 00:15 37.69775 -122.25728 6521 ft 270 kts 63°
2026-05-05 00:15 37.70711 -122.23635 7445 ft 275 kts 62°
2026-05-05 00:15 37.71677 -122.21513 8447 ft 277 kts 60°
2026-05-05 00:15 37.72738 -122.19458 9463 ft 281 kts 57°
2026-05-05 00:16 37.73812 -122.17404 10410 ft 287 kts 57°
2026-05-05 00:16 37.74951 -122.15235 10878 ft 308 kts 57°
2026-05-05 00:16 37.76202 -122.12813 11351 ft 327 kts 57°
2026-05-05 00:16 37.77440 -122.10406 12077 ft 335 kts 57°
2026-05-05 00:17 37.78698 -122.07952 13086 ft 335 kts 56°
2026-05-05 00:17 37.79992 -122.05439 13835 ft 342 kts 56°
2026-05-05 00:17 37.81284 -122.02919 14619 ft 346 kts 58°
2026-05-05 00:17 37.82401 -122.00157 15136 ft 357 kts 67°
2026-05-05 00:18 37.83203 -121.97165 15871 ft 361 kts 75°
2026-05-05 00:18 37.83776 -121.94054 16651 ft 364 kts 77°
2026-05-05 00:18 37.84356 -121.90927 17414 ft 366 kts 76°
2026-05-05 00:18 37.84937 -121.87829 18226 ft 367 kts 76°
2026-05-05 00:19 37.85549 -121.84562 18997 ft 368 kts 76°
2026-05-05 00:19 37.86132 -121.81438 19740 ft 369 kts 76°
2026-05-05 00:19 37.86721 -121.78262 20442 ft 371 kts 76°